{"data":{"norad_id":55286,"intl_designator":"2023-010T","name":"STARLINK-5338","alt_names":[],"object_type":"PAYLOAD","status":"ACTIVE","operator":null,"country":"US","launch_date":"2023-01-19","launch_site_code":"AFWTR","launch_vehicle":null,"mission":null,"orbit_class":"UNKNOWN","rcs_meters":null,"size_class":null,"mass_kg":null,"dimensions":null,"purposes":["comms"],"wikipedia_slug":null,"has_3d_model":false,"image_url":null,"decayed_at":null,"tle_current":{"epoch":"2026-09-20T22:27:29.704608Z","epoch_age_seconds":55096,"freshness":"FRESH","line1":"1 55286U 23010T   26263.93576047 -.00000187  00000+0 -78591-5 0  9994","line2":"2 55286  69.9981 252.2297 0003857 267.3942  92.6775 14.98330002202511","mean_motion":14.98330002,"eccentricity":0.0003857,"inclination_deg":69.9981,"raan_deg":252.2297,"arg_perigee_deg":267.3942,"mean_anomaly_deg":92.6775,"bstar":-7.8591e-6,"rev_number":20251,"period_min":96.106998997408,"perigee_km":569.37519536393,"apogee_km":574.73657415523,"semimajor_km":6950.1928847596,"source":"CELESTRAK","updated_at":"2026-09-21T09:00:33.167928Z"}}}